Pittsburgh, PA

5:31 PM EST on January 18, 2018 (GMT -0500)
Pittsburgh International

Weather History for KPIT - January, 2014

Change the Weather History Date:

Monday, January 13, 2014

  Actual Average Record
Temperature  
Mean Temperature 43 °F 28 °F  
Max Temperature 55 °F 35 °F 71 °F (1890)
Min Temperature 30 °F 21 °F -10 °F (1977)
Degree Days  
Heating Degree Days 22 37  
Month to date heating degree days 507 477  
Since 1 July heating degree days 2624 2652  
Cooling Degree Days 0 0  
Month to date cooling degree days 0 0  
Year to date cooling degree days 0 0  
Moisture  
Dew Point 35 °F    
Average Humidity 66    
Maximum Humidity 93    
Minimum Humidity 38    
Precipitation  
Precipitation 0.30 in 0.09 in 0.97 in (1910)
Month to date precipitation 1.56 1.15  
Year to date precipitation 1.56 1.15  
Snow  
Snow 0.00 in 0.40 in 11.00 in (1964)
Month to date snowfall 6.3 4.6  
Since 1 July snowfall 30.7 15.3  
Snow Depth 0.00 in    
Sea Level Pressure  
Sea Level Pressure 29.87 in    
Wind  
Wind Speed 8 mph (South)    
Max Wind Speed 17 mph    
Max Gust Speed 22 mph    
Visibility 9 miles    
Events Rain    
T = Trace of Precipitation, MM = Missing Value Source: NWS Daily Summary

Daily Weather History Graph

Daily Weather History Graph

Search for Another Location

Airport or City:

Trip Planner

Search our weather history database for the weather conditions in past years. The results will help you decide how hot, cold, wet, or windy it might be!

Date:

Astronomy

Jan. 13, 2014 Rise Set
Actual Time 7:42 AM EST 5:16 PM EST
Civil Twilight 7:12 AM EST 5:46 PM EST
Nautical Twilight 6:39 AM EST 6:20 PM EST
Astronomical Twilight 6:06 AM EST 6:53 PM EST
Moon 3:30 PM EST (1/13) 5:30 AM EST (1/13)
Length of Visible Light 10h 33m
Length of Day
9h 33m
Waxing Gibbous, 95% of the Moon is Illuminated
Jan 13
Waxing Gibbous
Jan 15
Full
Jan 24
Last Quarter
Jan 30
New
Feb 6
First Quarter

Hourly Weather History & Observations

Time (EST) Temp. Windchill Dew Point Humidity Pressure Visibility Wind Dir Wind Speed Gust Speed Precip Events Conditions
12:51 AM 32.0 °F 26.4 °F 28.0 °F 85% 30.01 in 10.0 mi South 5.8 mph - N/A   Clear
1:51 AM 33.1 °F 27.7 °F 28.0 °F 82% 29.99 in 10.0 mi South 5.8 mph - N/A   Clear
2:51 AM 33.1 °F 27.7 °F 28.0 °F 82% 29.98 in 10.0 mi SSE 5.8 mph - N/A   Clear
3:51 AM 32.0 °F 25.6 °F 27.0 °F 82% 30.00 in 10.0 mi SSE 6.9 mph - N/A   Partly Cloudy
4:51 AM 33.1 °F 26.9 °F 27.0 °F 78% 29.98 in 10.0 mi South 6.9 mph - N/A   Mostly Cloudy
5:51 AM 35.1 °F 30.1 °F 28.0 °F 76% 29.97 in 10.0 mi South 5.8 mph - N/A   Mostly Cloudy
6:51 AM 36.0 °F 30.3 °F 27.0 °F 70% 29.97 in 10.0 mi South 6.9 mph - N/A   Mostly Cloudy
7:51 AM 37.0 °F 32.4 °F 27.0 °F 67% 29.96 in 10.0 mi South 5.8 mph - N/A   Mostly Cloudy
8:51 AM 39.9 °F 35.1 °F 27.0 °F 60% 29.94 in 10.0 mi South 6.9 mph - N/A   Overcast
9:51 AM 43.0 °F 38.8 °F 28.0 °F 56% 29.91 in 10.0 mi South 6.9 mph - N/A   Overcast
10:51 AM 46.9 °F - 27.0 °F 46% 29.91 in 10.0 mi South 5.8 mph - N/A   Overcast
11:51 AM 51.1 °F - 28.9 °F 43% 29.87 in 10.0 mi South 8.1 mph - N/A   Overcast
12:51 PM 53.1 °F - 28.9 °F 40% 29.81 in 10.0 mi SSW 10.4 mph - N/A   Overcast
1:51 PM 55.0 °F - 30.0 °F 38% 29.82 in 10.0 mi SW 9.2 mph - N/A   Overcast
2:35 PM 50.0 °F - 37.4 °F 62% 29.79 in 3.0 mi SW 11.5 mph 17.3 mph 0.01 in Rain Light Rain
2:51 PM 48.0 °F - 39.9 °F 74% 29.85 in 8.0 mi SW 9.2 mph - 0.04 in Rain Light Rain
3:51 PM 46.0 °F 43.9 °F 41.0 °F 83% 29.84 in 6.0 mi SSW 4.6 mph - 0.05 in Rain Light Rain
4:51 PM 46.0 °F 41.4 °F 42.1 °F 86% 29.83 in 8.0 mi South 9.2 mph - 0.04 in Rain Light Rain
5:23 PM 46.4 °F 41.5 °F 42.8 °F 87% 29.78 in 10.0 mi SSW 10.4 mph 19.6 mph 0.02 in Rain Light Rain
5:51 PM 46.0 °F 41.9 °F 43.0 °F 89% 29.82 in 10.0 mi SSW 8.1 mph - 0.03 in Rain Light Rain
6:34 PM 46.4 °F 42.4 °F 44.6 °F 93% 29.75 in 10.0 mi SSW 8.1 mph - 0.01 in   Overcast
6:51 PM 46.9 °F - 44.1 °F 90% 29.79 in 10.0 mi SSW 10.4 mph - 0.01 in   Overcast
7:51 PM 46.9 °F - 44.1 °F 90% 29.78 in 10.0 mi SSW 10.4 mph - 0.02 in Rain Light Rain
8:51 PM 46.9 °F - 44.1 °F 90% 29.77 in 8.0 mi South 6.9 mph - 0.03 in Rain Light Rain
9:51 PM 46.9 °F - 45.0 °F 93% 29.76 in 9.0 mi SSW 8.1 mph - 0.03 in Rain Light Rain
10:51 PM 48.0 °F - 45.0 °F 89% 29.75 in 7.0 mi SSW 8.1 mph - 0.04 in Rain Light Rain
11:32 PM 48.2 °F - 44.6 °F 87% 29.71 in 10.0 mi SSW 13.8 mph 19.6 mph 0.01 in Rain Light Rain
11:51 PM 48.0 °F - 45.0 °F 89% 29.73 in 10.0 mi SSW 8.1 mph - 0.01 in Rain Light Rain